Weather in St. Louis

United States     38°38′08″N   90°14′26″W
temp.,
°C
wind,
m/s
gust,
m/s
humid.,
%
clouds,
%
prec.,
mm/h
press.,
hPa
HPBL,
m
16 may, sun
sun1601:00+14sse2584100 0.0 1020230
04:00+14se2690100 0.0 1020266
07:00+14se2488100 0.0 1020173
10:00+17se3468100 0.0 1021373
13:00+21se456257 0.1 1019737
16:00+21se457299 0.4 1017693
19:00+21se4879100 0.9 1016424
22:00+19sse31088100 3.7 1016260
17 may, mon
mon1701:00+17sse1396100 7.9 101680
04:00+16s2298100 2.6 101561
07:00+16se2398100 4.3 1016120
10:00+17se3893100 0.6 1017445
13:00+18sse51392100 2.1 1015979
16:00+17sse51295100 3.2 1014812
19:00+17sse51197100 7.0 1014760
22:00+17s31097100 3.1 1014629
18 may, tue
tue1801:00+17s51298100 9.8 1014714
04:00+17s51398100 1.5 1014703
07:00+17sse41096100 2.1 1016495
10:00+17sse4895100 0.2 1016500
13:00+20sse468597 0.3 1016620
16:00+24sse3567100 0.1 10151018
19:00+22sse5880100 0.2 1015628
22:00+20se4129396 0.7 1015556
19 may, wed
wed1901:00+19sse41092100 1.4 1016347
04:00+18sse41297100 1.7 1016638
07:00+18se51495100 3.8 1017672
10:00+22s61478100 0.3 1018970
13:00+27sse7125399 0.3 10171805
16:00+27s61156100 0.5 10171861
19:00+25sse6116387 0.9 10171091
22:00+22sse4127765 0.0 1019744
20 may, thu
thu2001:00+20sse41382100 0.0 1019563
04:00+19sse3988100 0.0 1020328
07:00+20sse3128568 0.0 1022492
10:00+24s61066100 0.0 1022885
13:00+25sse5965100 0.0 10221160
16:00+28sse6849100 0.1 10211982
19:00+25sse596613 0.1 1021664
22:00+23sse4117487 0.0 1023363